Morristown, NJ

12:05 AM EDT on October 14, 2019 (GMT -0400)
Morristown Municipal

Weather History for KMMU - September, 2019

Change the Weather History Date:

Wednesday, September 18, 2019

  Actual Average Record
Temperature  
Mean Temperature 56 °F -  
Max Temperature 69 °F 75 °F 93 °F (1991)
Min Temperature 44 °F 52 °F 31 °F (1937)
Degree Days  
Heating Degree Days 8    
Growing Degree Days 6 (Base 50)    
Moisture  
Dew Point 49 °F    
Average Humidity 89    
Maximum Humidity 100    
Minimum Humidity 53    
Precipitation  
Precipitation 0.00 in - - ()
Sea Level Pressure  
Sea Level Pressure 30.22 in    
Wind  
Wind Speed 1 mph ()    
Max Wind Speed 10 mph    
Max Gust Speed 17 mph    
Visibility 9.8 miles    
Events      
Averages and records for this station are not official NWS values.
T = Trace of Precipitation, MM = Missing Value Source: Averaged Metar Reports

Daily Weather History Graph

Daily Weather History Graph

Search for Another Location

Airport or City:

Astronomy

Sep. 18, 2019 Rise Set
Actual Time 6:40 AM EDT 7:01 PM EDT
Civil Twilight 6:13 AM EDT 7:29 PM EDT
Nautical Twilight 5:41 AM EDT 8:01 PM EDT
Astronomical Twilight 5:08 AM EDT 8:34 PM EDT
Moon 9:33 PM EDT (9/18) 10:43 AM EDT (9/18)
Length of Visible Light 13h 15m
Length of Day
12h 21m
Waning Gibbous, 82% of the Moon is Illuminated
Sep 18
Waning Gibbous
Sep 21
Last Quarter
Sep 28
New
Oct 5
First Quarter
Oct 13
Full

Hourly Weather History & Observations

Time (EDT) Temp. Dew Point Humidity Pressure Visibility Wind Dir Wind Speed Gust Speed Precip Events Conditions
12:15 AM 48.2 °F 48.2 °F 100% 30.16 in 10.0 mi Calm Calm - N/A   Clear
12:35 AM 48.2 °F 48.2 °F 100% 30.16 in 10.0 mi Calm Calm - N/A   Clear
12:55 AM 48.2 °F 48.2 °F 100% 30.16 in 10.0 mi Calm Calm - N/A   Clear
1:15 AM 48.2 °F 48.2 °F 100% 30.17 in 10.0 mi Calm Calm - N/A   Clear
1:35 AM 46.4 °F 46.4 °F 100% 30.18 in 10.0 mi Calm Calm - N/A   Clear
1:55 AM 46.4 °F 46.4 °F 100% 30.18 in 10.0 mi Calm Calm - N/A   Clear
2:15 AM 46.4 °F 46.4 °F 100% 30.18 in 10.0 mi Calm Calm - N/A   Clear
2:35 AM 46.4 °F 46.4 °F 100% 30.17 in 10.0 mi Calm Calm - N/A   Clear
2:55 AM 46.4 °F 46.4 °F 100% 30.18 in 10.0 mi Calm Calm - N/A   Clear
3:15 AM 46.4 °F 46.4 °F 100% 30.18 in 10.0 mi Calm Calm - N/A   Clear
3:35 AM 46.4 °F 46.4 °F 100% 30.18 in 10.0 mi Calm Calm - N/A   Clear
3:55 AM 46.4 °F 46.4 °F 100% 30.18 in 10.0 mi Calm Calm - N/A   Clear
4:15 AM 44.6 °F 44.6 °F 100% 30.18 in 10.0 mi Calm Calm - N/A   Clear
4:35 AM 44.6 °F 44.6 °F 100% 30.18 in 10.0 mi Calm Calm - N/A   Clear
4:55 AM 44.6 °F 44.6 °F 100% 30.18 in 10.0 mi Calm Calm - N/A   Clear
5:15 AM 44.6 °F 44.6 °F 100% 30.19 in 10.0 mi Calm Calm - N/A   Clear
5:35 AM 44.6 °F 44.6 °F 100% 30.19 in 4.0 mi Calm Calm - N/A   Clear
5:55 AM 46.4 °F 46.4 °F 100% 30.20 in 10.0 mi Calm Calm - N/A   Mostly Cloudy
6:15 AM 46.4 °F 46.4 °F 100% 30.21 in 7.0 mi Calm Calm - N/A   Overcast
6:35 AM 46.4 °F 46.4 °F 100% 30.22 in 10.0 mi Calm Calm - N/A   Mostly Cloudy
6:45 AM 48.2 °F 48.2 °F 100% 30.22 in 10.0 mi Calm Calm - N/A   Scattered Clouds
7:55 AM 53.6 °F 53.6 °F 100% 30.25 in 10.0 mi Calm Calm - N/A   Scattered Clouds
8:55 AM 59.0 °F 55.4 °F 88% 30.26 in 10.0 mi ENE 5.8 mph - N/A   Scattered Clouds
9:48 AM 62.6 °F 53.6 °F 72% 30.26 in 10.0 mi ENE 5.8 mph - N/A   Partly Cloudy
10:55 AM 66.2 °F 53.6 °F 64% 30.26 in 10.0 mi NNE 6.9 mph - N/A   Scattered Clouds
11:45 AM 68.0 °F 51.8 °F 56% 30.26 in 10.0 mi East 10.4 mph - N/A   Overcast
12:47 PM 68.0 °F 53.6 °F 60% 30.24 in 10.0 mi NNE 3.5 mph - N/A   Mostly Cloudy
1:45 PM 69.8 °F 51.8 °F 53% 30.24 in 10.0 mi ENE 5.8 mph - N/A   Mostly Cloudy
2:45 PM 69.8 °F 51.8 °F 53% 30.23 in 10.0 mi NE 4.6 mph - N/A   Mostly Cloudy
3:45 PM 68.0 °F 51.8 °F 56% 30.24 in 10.0 mi ENE 4.6 mph - N/A   Mostly Cloudy
4:45 PM 68.0 °F 51.8 °F 56% 30.24 in 10.0 mi ENE 8.1 mph 17.3 mph N/A   Scattered Clouds
5:45 PM 68.0 °F 51.8 °F 56% 30.24 in 10.0 mi ESE 6.9 mph - N/A   Partly Cloudy
6:45 PM 64.4 °F 51.8 °F 64% 30.24 in 10.0 mi ESE 8.1 mph - N/A   Partly Cloudy
7:45 PM 57.2 °F 51.8 °F 82% 30.27 in 10.0 mi NE 3.5 mph - N/A   Partly Cloudy
8:45 PM 53.6 °F 50.0 °F 88% 30.28 in 10.0 mi NNE 3.5 mph - N/A   Partly Cloudy
9:45 PM 51.8 °F 51.8 °F 100% 30.31 in 10.0 mi Calm Calm - N/A   Partly Cloudy
10:35 PM 50.0 °F 48.2 °F 94% 30.31 in 10.0 mi Calm Calm - N/A   Scattered Clouds
10:55 PM 48.2 °F 48.2 °F 100% 30.31 in 10.0 mi Calm Calm - N/A   Mostly Cloudy
11:15 PM 48.2 °F 46.4 °F 93% 30.31 in 10.0 mi Calm Calm - N/A   Scattered Clouds
11:35 PM 46.4 °F 46.4 °F 100% 30.31 in 10.0 mi Calm Calm - N/A   Clear
11:55 PM 46.4 °F 46.4 °F 100% 30.31 in 10.0 mi Calm Calm - N/A   Clear